星链-11405 (STARLINK-11405)

导读

STARLINK-11405是美国SpaceX星链星座的一员,于2025年2月15日发射升空。星链系统旨在构建全球卫星互联网,为偏远地区、海洋及空中场景提供低延迟宽带服务。该卫星延续星链设计,采用低轨部署,推进星座扩容,完善全球覆盖网络,服务全球互联网接入需求。

基本信息
目录编号:
63008
目录名称:
STARLINK-11405
国际标识:
2025-032D
轨道中心:
EARTH
卫星名称:
星链-11405
卫星全名:
星链-11405 (STARLINK-11405)
卫星状态:
在轨 (已飞行484 天)
发射日期:
2025-02-15 UTC
国别 :
美国 (US)
星等 :
--
轨道信息
数据来源 国际轨道数据
星历时间: 2026-06-14T11:53:20+0800
14小时前
查看轨道信息
半长轴: 6734.526km
偏心率: 0.0001708
轨道倾角: 43.005°
近地点辐角 3.335°
升交点赤经 334.077°
平近点角 356.753°
近地点: 355.238km
远地点: 357.54km
周期: 91.669分钟
每日圈数: 15.708773
详细信息
固有亮度:
5
最大亮度:
2.5
卫星平台:
Starlink V1.0
覆盖范围:
全球
运营商:
太空探索技术公司
运营商所在国:
美国
制造商(研发单位):
太空探索技术公司
制造商所在国:
美国
使用方式:
暂无
卫星简介
Starlink 计划是 SpaceX 推出的全球卫星互联网项目,通过发射低轨道卫星,为全球尤其是偏远地区提供高速、低延迟的互联网服务。自 2019 年起,Starlink 已部署数千颗卫星,旨在缩小全球数字鸿沟,推动互联网普及。该项目还为军事、航空等行业提供通信支持,带来广泛经济效益。
2D轨道图
3D轨道图
轨道高度分析图
轨道倾角分析图
轨道综合分析图
查看轨道综合分析图